SWA1721 TNCM-KMCO

Flight info

Callsign SWA1721
Flight time 3h 23m
Altitude 40000
Route PJM B520 STT RTE6 SJU DCT ACONY Y280 SUMAC DCT OCTAL MUNGI1
Aircraft B738/M-SDE2E3GHIJ4J7P2RWZ/LB1D1

Departure

Time 2026-04-23 23:14
Airport Princess Juliana International Airport (TNCM)

Arrival

Time 2026-04-24 02:37
Airport Orlando International Airport (KMCO)
Time Latitude Longitude Altitude Speed Heading
2026-04-23 22:51 18.04156 -63.11409 20 ft 0 kts 171°
2026-04-23 23:05 18.04157 -63.11409 20 ft 1 kts 172°
2026-04-23 23:05 18.04171 -63.11412 20 ft 2 kts 171°
2026-04-23 23:05 18.04186 -63.11414 20 ft 2 kts 180°
2026-04-23 23:05 18.04201 -63.11411 20 ft 2 kts 198°
2026-04-23 23:06 18.04215 -63.11405 20 ft 2 kts 215°
2026-04-23 23:06 18.04226 -63.11395 20 ft 2 kts 231°
2026-04-23 23:06 18.04234 -63.11381 20 ft 2 kts 247°
2026-04-23 23:06 18.04238 -63.11369 20 ft 0 kts 260°
2026-04-23 23:07 18.04238 -63.11362 20 ft 0 kts 263°
2026-04-23 23:10 18.04238 -63.11368 20 ft 0 kts 262°
2026-04-23 23:10 18.04234 -63.11399 20 ft 8 kts 262°
2026-04-23 23:11 18.04219 -63.11465 20 ft 11 kts 246°
2026-04-23 23:11 18.04163 -63.11551 21 ft 15 kts 230°
2026-04-23 23:11 18.04093 -63.11642 21 ft 17 kts 234°
2026-04-23 23:11 18.04052 -63.11769 21 ft 19 kts 260°
2026-04-23 23:12 18.04025 -63.11901 22 ft 16 kts 243°
2026-04-23 23:12 18.03960 -63.11960 22 ft 8 kts 160°
2026-04-23 23:12 18.03946 -63.11930 22 ft 3 kts 83°
2026-04-23 23:12 18.03946 -63.11929 22 ft 0 kts 82°
2026-04-23 23:13 18.03950 -63.11903 22 ft 22 kts 81°
2026-04-23 23:13 18.04014 -63.11461 21 ft 97 kts 81°
2026-04-23 23:13 18.04149 -63.10525 20 ft 159 kts 82°
2026-04-23 23:13 18.04276 -63.09283 460 ft 174 kts 95°
2026-04-23 23:14 18.03898 -63.08101 1199 ft 176 kts 121°
2026-04-23 23:14 18.02908 -63.07320 1765 ft 192 kts 163°
2026-04-23 23:14 18.01525 -63.07357 2240 ft 207 kts 195°
2026-04-23 23:14 18.00264 -63.08152 2678 ft 220 kts 226°
2026-04-23 23:15 17.99324 -63.09467 3081 ft 234 kts 236°
2026-04-23 23:15 17.98380 -63.10971 3475 ft 252 kts 236°
2026-04-23 23:15 17.97382 -63.12507 4035 ft 263 kts 235°
2026-04-23 23:15 17.96314 -63.14110 4664 ft 272 kts 234°
2026-04-23 23:16 17.95221 -63.15736 5265 ft 281 kts 234°
2026-04-23 23:16 17.94089 -63.17419 5984 ft 285 kts 234°
2026-04-23 23:16 17.92939 -63.19134 6762 ft 287 kts 235°
2026-04-23 23:16 17.91945 -63.20919 7498 ft 289 kts 248°
2026-04-23 23:17 17.91528 -63.22973 8179 ft 292 kts 272°
2026-04-23 23:17 17.91925 -63.25046 8844 ft 293 kts 293°
2026-04-23 23:17 17.92840 -63.26956 9560 ft 295 kts 299°
2026-04-23 23:17 17.93830 -63.28849 10224 ft 298 kts 299°
2026-04-23 23:18 17.94845 -63.30809 10670 ft 311 kts 299°
2026-04-23 23:18 17.95876 -63.32821 11038 ft 324 kts 298°
2026-04-23 23:18 17.96975 -63.34975 11401 ft 338 kts 298°
2026-04-23 23:18 17.98107 -63.37196 11695 ft 353 kts 298°
2026-04-23 23:19 17.99276 -63.39490 12157 ft 361 kts 298°
2026-04-23 23:19 18.00457 -63.41806 12726 ft 365 kts 298°
2026-04-23 23:19 18.01671 -63.44186 13380 ft 367 kts 298°
2026-04-23 23:19 18.02881 -63.46559 13961 ft 370 kts 297°
2026-04-23 23:20 18.04082 -63.48915 14529 ft 372 kts 297°
2026-04-23 23:20 18.05318 -63.51342 15124 ft 374 kts 297°
2026-04-23 23:20 18.06540 -63.53740 15702 ft 376 kts 297°
2026-04-23 23:20 18.07780 -63.56175 16223 ft 379 kts 297°
2026-04-23 23:21 18.09023 -63.58619 16698 ft 383 kts 297°
2026-04-23 23:21 18.10269 -63.61068 17229 ft 384 kts 297°
2026-04-23 23:21 18.11507 -63.63575 17741 ft 385 kts 294°
2026-04-23 23:21 18.12567 -63.66175 18307 ft 385 kts 289°
2026-04-23 23:22 18.13378 -63.68846 18773 ft 387 kts 284°
2026-04-23 23:22 18.13994 -63.71576 19344 ft 386 kts 281°
2026-04-23 23:22 18.14505 -63.74346 19828 ft 388 kts 279°
2026-04-23 23:22 18.14969 -63.77132 20316 ft 390 kts 278°
2026-04-23 23:23 18.15419 -63.79938 20788 ft 391 kts 278°
2026-04-23 23:23 18.15874 -63.82772 21268 ft 392 kts 278°
2026-04-23 23:23 18.16329 -63.85588 21728 ft 394 kts 279°
2026-04-23 23:23 18.16796 -63.88438 22202 ft 394 kts 278°
2026-04-23 23:24 18.17261 -63.91251 22699 ft 394 kts 279°
2026-04-23 23:24 18.17734 -63.94096 23037 ft 398 kts 279°
2026-04-23 23:24 18.18214 -63.96968 23423 ft 401 kts 279°
2026-04-23 23:24 18.18698 -63.99869 23799 ft 404 kts 278°
2026-04-23 23:25 18.19188 -64.02797 24181 ft 406 kts 278°
2026-04-23 23:25 18.19675 -64.05711 24561 ft 409 kts 278°
2026-04-23 23:25 18.20167 -64.08646 25014 ft 409 kts 278°
2026-04-23 23:25 18.20664 -64.11628 25298 ft 414 kts 278°
2026-04-23 23:26 18.21158 -64.14588 25699 ft 415 kts 278°
2026-04-23 23:26 18.21654 -64.17563 26078 ft 416 kts 278°
2026-04-23 23:26 18.22158 -64.20589 26425 ft 419 kts 278°
2026-04-23 23:26 18.22656 -64.23583 26780 ft 420 kts 278°
2026-04-23 23:27 18.23158 -64.26601 27154 ft 421 kts 277°
2026-04-23 23:27 18.23666 -64.29664 27422 ft 425 kts 278°
2026-04-23 23:27 18.24173 -64.32726 27767 ft 426 kts 277°
2026-04-23 23:27 18.24682 -64.35796 28118 ft 427 kts 277°
2026-04-23 23:28 18.25189 -64.38857 28421 ft 430 kts 277°
2026-04-23 23:28 18.25699 -64.41946 28698 ft 432 kts 277°
2026-04-23 23:28 18.26217 -64.45081 28983 ft 434 kts 277°
2026-04-23 23:28 18.26730 -64.48191 29332 ft 434 kts 277°
2026-04-23 23:29 18.27242 -64.51295 29788 ft 431 kts 277°
2026-04-23 23:29 18.27750 -64.54370 30383 ft 425 kts 277°
2026-04-23 23:29 18.28253 -64.57416 30897 ft 420 kts 277°
2026-04-23 23:29 18.28749 -64.60437 31252 ft 420 kts 277°
2026-04-23 23:30 18.29245 -64.63465 31589 ft 419 kts 278°
2026-04-23 23:30 18.29741 -64.66497 31900 ft 418 kts 277°
2026-04-23 23:30 18.30232 -64.69495 32320 ft 415 kts 277°
2026-04-23 23:30 18.30721 -64.72474 32767 ft 412 kts 278°
2026-04-23 23:31 18.31206 -64.75444 33166 ft 410 kts 277°
2026-04-23 23:31 18.31685 -64.78379 33506 ft 409 kts 277°
2026-04-23 23:31 18.32165 -64.81327 33867 ft 408 kts 277°
2026-04-23 23:31 18.32643 -64.84265 34247 ft 406 kts 277°
2026-04-23 23:32 18.33121 -64.87199 34590 ft 404 kts 277°
2026-04-23 23:32 18.33591 -64.90087 34921 ft 403 kts 277°
2026-04-23 23:32 18.34064 -64.93003 35229 ft 402 kts 277°
2026-04-23 23:32 18.34538 -64.95923 35468 ft 402 kts 277°
2026-04-23 23:33 18.34930 -64.98815 35671 ft 401 kts 273°
2026-04-23 23:33 18.35049 -65.01739 35900 ft 399 kts 267°
2026-04-23 23:33 18.34832 -65.04646 36175 ft 397 kts 261°
2026-04-23 23:33 18.34295 -65.07459 36399 ft 397 kts 256°
2026-04-23 23:34 18.33514 -65.10263 36582 ft 397 kts 252°
2026-04-23 23:34 18.32633 -65.13019 36770 ft 398 kts 252°
2026-04-23 23:34 18.31727 -65.15753 37008 ft 396 kts 251°
2026-04-23 23:34 18.30812 -65.18493 37275 ft 395 kts 251°
2026-04-23 23:35 18.30000 -65.21242 37442 ft 394 kts 256°
2026-04-23 23:35 18.29483 -65.24062 37566 ft 395 kts 262°
2026-04-23 23:35 18.29301 -65.26918 37728 ft 395 kts 268°
2026-04-23 23:35 18.29460 -65.29835 37886 ft 397 kts 274°
2026-04-23 23:36 18.29956 -65.32682 38057 ft 398 kts 280°
2026-04-23 23:36 18.31530 -65.38300 38259 ft 400 kts 283°
2026-04-23 23:36 18.32325 -65.41083 38365 ft 400 kts 282°
2026-04-23 23:37 18.33079 -65.43899 38514 ft 398 kts 281°
2026-04-23 23:37 18.33778 -65.46704 38633 ft 398 kts 280°
2026-04-23 23:37 18.34437 -65.49517 38735 ft 397 kts 279°
2026-04-23 23:37 18.35072 -65.52364 38877 ft 396 kts 279°
2026-04-23 23:38 18.35678 -65.55174 38972 ft 396 kts 278°
2026-04-23 23:38 18.36856 -65.60799 39158 ft 395 kts 278°
2026-04-23 23:39 18.38022 -65.66465 39331 ft 395 kts 278°
2026-04-23 23:39 18.38593 -65.69251 39498 ft 393 kts 278°
2026-04-23 23:39 18.39170 -65.72071 39607 ft 392 kts 278°
2026-04-23 23:40 18.40315 -65.77683 39766 ft 392 kts 278°
2026-04-23 23:40 18.41454 -65.83267 39982 ft 389 kts 277°
2026-04-23 23:41 18.42591 -65.88852 39982 ft 389 kts 278°
2026-04-23 23:41 18.43771 -65.94392 39979 ft 390 kts 281°
2026-04-23 23:42 18.45957 -65.99635 39980 ft 400 kts 298°
2026-04-23 23:42 18.49637 -66.04136 39978 ft 409 kts 307°
2026-04-23 23:43 18.53753 -66.08313 39976 ft 411 kts 309°
2026-04-23 23:43 18.57924 -66.12446 39977 ft 411 kts 309°
2026-04-23 23:44 18.62068 -66.16582 39976 ft 411 kts 309°
2026-04-23 23:44 18.66188 -66.20731 39980 ft 410 kts 308°
2026-04-23 23:45 18.70332 -66.24925 39986 ft 410 kts 308°
2026-04-23 23:45 18.74428 -66.29079 39987 ft 410 kts 308°
2026-04-23 23:46 18.78533 -66.33247 39988 ft 410 kts 308°
2026-04-23 23:46 18.82657 -66.37437 39985 ft 410 kts 308°
2026-04-23 23:47 18.86762 -66.41612 39981 ft 410 kts 308°
2026-04-23 23:47 18.90844 -66.45768 39980 ft 409 kts 308°
2026-04-23 23:48 18.94812 -66.50073 39979 ft 405 kts 303°
2026-04-23 23:48 18.98423 -66.54607 39979 ft 402 kts 302°
2026-04-23 23:49 19.03752 -66.61448 39977 ft 402 kts 302°
2026-04-23 23:49 19.07326 -66.65981 39980 ft 402 kts 302°
2026-04-23 23:50 19.10921 -66.70514 39975 ft 403 kts 302°
2026-04-23 23:50 19.14525 -66.75053 39975 ft 404 kts 302°
2026-04-23 23:51 19.18148 -66.79616 39975 ft 404 kts 302°
2026-04-23 23:51 19.21740 -66.84141 39977 ft 404 kts 302°
2026-04-23 23:52 19.25362 -66.88706 39975 ft 404 kts 302°
2026-04-23 23:52 19.28976 -66.93265 39976 ft 404 kts 302°
2026-04-23 23:53 19.32573 -66.97807 39978 ft 404 kts 302°
2026-04-23 23:53 19.36178 -67.02362 39975 ft 404 kts 302°
2026-04-23 23:54 19.39776 -67.06913 39973 ft 404 kts 302°
2026-04-23 23:54 19.43394 -67.11492 39980 ft 403 kts 302°
2026-04-23 23:55 19.46987 -67.16042 39976 ft 403 kts 302°
2026-04-23 23:55 19.50562 -67.20576 39978 ft 403 kts 302°
2026-04-23 23:56 19.54151 -67.25128 39980 ft 402 kts 302°
2026-04-23 23:56 19.57720 -67.29658 39975 ft 401 kts 302°
2026-04-23 23:57 19.61297 -67.34203 39981 ft 401 kts 302°
2026-04-23 23:57 19.64875 -67.38751 39981 ft 400 kts 302°
2026-04-23 23:58 19.68434 -67.43276 39980 ft 400 kts 302°
2026-04-23 23:58 19.71993 -67.47809 39983 ft 399 kts 302°
2026-04-23 23:59 19.75533 -67.52321 39982 ft 399 kts 302°
2026-04-23 23:59 19.79077 -67.56842 39983 ft 399 kts 302°
2026-04-24 00:00 19.82640 -67.61390 39983 ft 398 kts 302°
2026-04-24 00:00 19.86175 -67.65905 39984 ft 398 kts 301°
2026-04-24 00:01 19.89725 -67.70443 39984 ft 399 kts 302°
2026-04-24 00:01 19.93250 -67.74952 39987 ft 400 kts 301°
2026-04-24 00:02 19.96817 -67.79519 39987 ft 400 kts 301°
2026-04-24 00:02 20.00378 -67.84081 39997 ft 401 kts 301°
2026-04-24 00:03 20.03928 -67.88631 40004 ft 401 kts 301°
2026-04-24 00:03 20.07474 -67.93179 40006 ft 400 kts 301°
2026-04-24 00:04 20.11035 -67.97752 40012 ft 400 kts 301°
2026-04-24 00:04 20.14595 -68.02327 40006 ft 400 kts 301°
2026-04-24 00:05 20.18113 -68.06850 40008 ft 399 kts 301°
2026-04-24 00:05 20.21669 -68.11430 40005 ft 399 kts 301°
2026-04-24 00:06 20.25189 -68.15964 40006 ft 399 kts 301°
2026-04-24 00:06 20.28724 -68.20521 40009 ft 399 kts 301°
2026-04-24 00:07 20.32247 -68.25067 40008 ft 399 kts 301°
2026-04-24 00:07 20.35775 -68.29622 40000 ft 398 kts 301°
2026-04-24 00:08 20.39300 -68.34177 40006 ft 398 kts 301°
2026-04-24 00:08 20.42802 -68.38705 40007 ft 398 kts 301°
2026-04-24 00:09 20.46000 -68.43445 40004 ft 391 kts 295°
2026-04-24 00:09 20.48858 -68.48372 40004 ft 389 kts 294°
2026-04-24 00:10 20.51676 -68.53294 40001 ft 389 kts 295°
2026-04-24 00:10 20.54523 -68.58198 40003 ft 389 kts 294°
2026-04-24 00:11 20.57370 -68.63063 40004 ft 389 kts 295°
2026-04-24 00:11 20.60261 -68.67995 39998 ft 390 kts 294°
2026-04-24 00:12 20.63120 -68.72874 39995 ft 390 kts 294°
2026-04-24 00:12 20.66015 -68.77814 39989 ft 391 kts 294°
2026-04-24 00:13 20.68875 -68.82697 39986 ft 391 kts 294°
2026-04-24 00:13 20.71765 -68.87638 39986 ft 390 kts 295°
2026-04-24 00:14 20.74619 -68.92520 39981 ft 390 kts 295°
2026-04-24 00:14 20.77491 -68.97438 39984 ft 390 kts 295°
2026-04-24 00:15 20.80356 -69.02348 39987 ft 389 kts 295°
2026-04-24 00:15 20.83209 -69.07243 39981 ft 389 kts 294°
2026-04-24 00:16 20.86071 -69.12157 39983 ft 389 kts 294°
2026-04-24 00:16 20.88926 -69.17065 39983 ft 389 kts 294°
2026-04-24 00:17 20.91786 -69.21985 39987 ft 389 kts 294°
2026-04-24 00:17 20.94632 -69.26884 39987 ft 389 kts 294°
2026-04-24 00:18 20.97495 -69.31818 39986 ft 389 kts 294°
2026-04-24 00:18 21.00329 -69.36707 39988 ft 389 kts 294°
2026-04-24 00:19 21.03181 -69.41627 39988 ft 388 kts 294°
2026-04-24 00:19 21.06020 -69.46532 39990 ft 388 kts 294°
2026-04-24 00:20 21.08856 -69.51436 39990 ft 388 kts 294°
2026-04-24 00:20 21.11681 -69.56325 39990 ft 387 kts 294°
2026-04-24 00:21 21.14499 -69.61205 39990 ft 386 kts 294°
2026-04-24 00:21 21.17330 -69.66112 39991 ft 386 kts 294°
2026-04-24 00:22 21.20151 -69.71008 39992 ft 387 kts 294°
2026-04-24 00:22 21.22973 -69.75912 39993 ft 388 kts 294°
2026-04-24 00:23 21.25808 -69.80843 39993 ft 388 kts 294°
2026-04-24 00:23 21.28651 -69.85789 39993 ft 389 kts 294°
2026-04-24 00:24 21.31473 -69.90704 39993 ft 389 kts 294°
2026-04-24 00:24 21.34316 -69.95657 39997 ft 389 kts 294°
2026-04-24 00:25 21.37137 -70.00579 39995 ft 388 kts 294°
2026-04-24 00:25 21.39947 -70.05486 39995 ft 388 kts 294°
2026-04-24 00:26 21.42766 -70.10415 39996 ft 388 kts 294°
2026-04-24 00:26 21.45587 -70.15346 39998 ft 388 kts 294°
2026-04-24 00:27 21.48404 -70.20281 39996 ft 388 kts 293°
2026-04-24 00:27 21.51215 -70.25209 39996 ft 388 kts 293°
2026-04-24 00:28 21.54044 -70.30174 40000 ft 389 kts 293°
2026-04-24 00:28 21.56844 -70.35091 39997 ft 389 kts 293°
2026-04-24 00:29 21.59673 -70.40060 40003 ft 388 kts 293°
2026-04-24 00:29 21.62463 -70.44966 40003 ft 387 kts 294°
2026-04-24 00:30 21.65267 -70.49903 40010 ft 387 kts 293°
2026-04-24 00:30 21.68074 -70.54849 40013 ft 387 kts 293°
2026-04-24 00:31 21.70873 -70.59786 40012 ft 387 kts 293°
2026-04-24 00:31 21.73672 -70.64728 40016 ft 387 kts 293°
2026-04-24 00:32 21.76459 -70.69654 40021 ft 388 kts 293°
2026-04-24 00:32 21.79255 -70.74603 40021 ft 388 kts 293°
2026-04-24 00:33 21.82066 -70.79577 40022 ft 387 kts 293°
2026-04-24 00:33 21.84851 -70.84509 40020 ft 387 kts 293°
2026-04-24 00:34 21.87631 -70.89439 40021 ft 386 kts 293°
2026-04-24 00:34 21.90421 -70.94392 40023 ft 386 kts 292°
2026-04-24 00:35 21.93189 -70.99311 40024 ft 386 kts 293°
2026-04-24 00:35 21.95983 -71.04281 40025 ft 387 kts 293°
2026-04-24 00:36 21.98749 -71.09203 40026 ft 385 kts 292°
2026-04-24 00:36 22.01518 -71.14141 40026 ft 387 kts 292°
2026-04-24 00:37 22.04302 -71.19105 40027 ft 385 kts 292°
2026-04-24 00:37 22.07064 -71.24034 40022 ft 386 kts 293°
2026-04-24 00:38 22.09840 -71.28992 40025 ft 385 kts 292°
2026-04-24 00:38 22.12597 -71.33922 40028 ft 385 kts 293°
2026-04-24 00:39 22.15357 -71.38866 40029 ft 385 kts 293°
2026-04-24 00:39 22.18121 -71.43819 40032 ft 385 kts 293°
2026-04-24 00:40 22.20862 -71.48733 40028 ft 385 kts 292°
2026-04-24 00:40 22.23622 -71.53688 40031 ft 384 kts 292°
2026-04-24 00:41 22.26354 -71.58594 40028 ft 383 kts 293°
2026-04-24 00:41 22.29107 -71.63543 40029 ft 383 kts 293°
2026-04-24 00:42 22.31839 -71.68459 40029 ft 383 kts 292°
2026-04-24 00:42 22.34570 -71.73385 40030 ft 384 kts 292°
2026-04-24 00:43 22.37305 -71.78318 40030 ft 383 kts 292°
2026-04-24 00:43 22.40035 -71.83249 40027 ft 383 kts 292°
2026-04-24 00:44 22.42770 -71.88192 40027 ft 384 kts 292°
2026-04-24 00:44 22.45516 -71.93156 40029 ft 384 kts 292°
2026-04-24 00:45 22.48257 -71.98116 40030 ft 383 kts 292°
2026-04-24 00:45 22.50989 -72.03066 40028 ft 384 kts 292°
2026-04-24 00:46 22.53717 -72.08014 40026 ft 382 kts 292°
2026-04-24 00:46 22.56436 -72.12950 40028 ft 383 kts 292°
2026-04-24 00:47 22.59151 -72.17888 40026 ft 383 kts 292°
2026-04-24 00:47 22.61877 -72.22841 40030 ft 383 kts 292°
2026-04-24 00:48 22.64592 -72.27779 40027 ft 383 kts 292°
2026-04-24 00:48 22.67309 -72.32729 40028 ft 383 kts 292°
2026-04-24 00:49 22.70040 -72.37711 40029 ft 383 kts 292°
2026-04-24 00:49 22.72750 -72.42658 40028 ft 383 kts 292°
2026-04-24 00:50 22.75450 -72.47595 40029 ft 383 kts 292°
2026-04-24 00:50 22.78159 -72.52556 40031 ft 383 kts 292°
2026-04-24 00:51 22.80885 -72.57545 40030 ft 383 kts 292°
2026-04-24 00:51 22.83593 -72.62505 40029 ft 383 kts 292°
2026-04-24 00:52 22.86298 -72.67468 40028 ft 384 kts 292°
2026-04-24 00:52 22.89002 -72.72437 40030 ft 385 kts 291°
2026-04-24 00:53 22.91721 -72.77436 40028 ft 385 kts 292°
2026-04-24 00:53 22.94429 -72.82416 40027 ft 384 kts 291°
2026-04-24 00:54 22.97147 -72.87419 40028 ft 384 kts 291°
2026-04-24 00:54 22.99843 -72.92387 40030 ft 384 kts 291°
2026-04-24 00:55 23.02547 -72.97383 40029 ft 384 kts 292°
2026-04-24 00:55 23.05236 -73.02352 40029 ft 385 kts 291°
2026-04-24 00:56 23.07945 -73.07364 40034 ft 385 kts 291°
2026-04-24 00:56 23.10659 -73.12384 40032 ft 383 kts 291°
2026-04-24 00:57 23.13350 -73.17371 40034 ft 383 kts 291°
2026-04-24 00:58 23.17360 -73.24804 40033 ft 381 kts 291°
2026-04-24 00:58 23.20032 -73.29767 40034 ft 382 kts 291°
2026-04-24 00:59 23.22709 -73.34753 40032 ft 382 kts 291°
2026-04-24 00:59 23.25395 -73.39754 40035 ft 382 kts 291°
2026-04-24 01:00 23.28062 -73.44722 40034 ft 381 kts 291°
2026-04-24 01:00 23.30735 -73.49706 40040 ft 381 kts 291°
2026-04-24 01:01 23.33387 -73.54657 40034 ft 381 kts 291°
2026-04-24 01:01 23.36066 -73.59664 40037 ft 381 kts 291°
2026-04-24 01:02 23.38724 -73.64635 40039 ft 381 kts 291°
2026-04-24 01:02 23.41388 -73.69625 40035 ft 381 kts 291°
2026-04-24 01:03 23.44042 -73.74594 40037 ft 381 kts 291°
2026-04-24 01:03 23.46712 -73.79604 40038 ft 381 kts 291°
2026-04-24 01:04 23.49356 -73.84569 40036 ft 382 kts 291°
2026-04-24 01:04 23.52014 -73.89565 40039 ft 381 kts 291°
2026-04-24 01:05 23.54674 -73.94572 40042 ft 382 kts 291°
2026-04-24 01:05 23.57336 -73.99589 40044 ft 382 kts 291°
2026-04-24 01:06 23.59984 -74.04578 40048 ft 382 kts 291°
2026-04-24 01:06 23.62624 -74.09565 40048 ft 381 kts 291°
2026-04-24 01:07 23.65271 -74.14568 40049 ft 381 kts 291°
2026-04-24 01:07 23.67922 -74.19582 40048 ft 381 kts 291°
2026-04-24 01:08 23.70566 -74.24587 40046 ft 381 kts 291°
2026-04-24 01:08 23.73194 -74.29564 40046 ft 381 kts 290°
2026-04-24 01:09 23.75833 -74.34572 40047 ft 381 kts 291°
2026-04-24 01:09 23.78479 -74.39598 40048 ft 380 kts 291°
2026-04-24 01:10 23.81110 -74.44600 40048 ft 379 kts 291°
2026-04-24 01:10 23.83719 -74.49564 40046 ft 379 kts 291°
2026-04-24 01:11 23.86334 -74.54549 40049 ft 379 kts 290°
2026-04-24 01:11 23.88961 -74.59560 40054 ft 380 kts 291°
2026-04-24 01:12 23.91562 -74.64526 40051 ft 378 kts 291°
2026-04-24 01:12 23.94185 -74.69545 40049 ft 380 kts 290°
2026-04-24 01:13 23.96804 -74.74557 40050 ft 381 kts 291°
2026-04-24 01:13 23.99422 -74.79568 40052 ft 380 kts 291°
2026-04-24 01:14 24.02037 -74.84581 40050 ft 382 kts 291°
2026-04-24 01:14 24.04676 -74.89643 40053 ft 382 kts 291°
2026-04-24 01:15 24.07308 -74.94695 40052 ft 381 kts 291°
2026-04-24 01:15 24.09913 -74.99699 40053 ft 381 kts 291°
2026-04-24 01:16 24.12551 -75.04782 40054 ft 382 kts 291°
2026-04-24 01:16 24.15164 -75.09819 40053 ft 382 kts 291°
2026-04-24 01:17 24.17780 -75.14863 40052 ft 383 kts 291°
2026-04-24 01:17 24.20402 -75.19930 40054 ft 383 kts 291°
2026-04-24 01:18 24.23026 -75.24998 40051 ft 382 kts 291°
2026-04-24 01:18 24.25646 -75.30070 40054 ft 383 kts 291°
2026-04-24 01:19 24.28270 -75.35152 40055 ft 384 kts 291°
2026-04-24 01:19 24.30897 -75.40244 40056 ft 383 kts 291°
2026-04-24 01:20 24.33509 -75.45316 40056 ft 384 kts 292°
2026-04-24 01:20 24.36129 -75.50407 40058 ft 383 kts 292°
2026-04-24 01:21 24.38749 -75.55506 40059 ft 384 kts 292°
2026-04-24 01:21 24.41370 -75.60607 40060 ft 383 kts 292°
2026-04-24 01:22 24.43984 -75.65704 40059 ft 384 kts 292°
2026-04-24 01:22 24.46594 -75.70797 40061 ft 386 kts 292°
2026-04-24 01:23 24.49235 -75.75958 40058 ft 386 kts 291°
2026-04-24 01:23 24.51851 -75.81070 40060 ft 385 kts 291°
2026-04-24 01:24 24.54483 -75.86217 40061 ft 386 kts 292°
2026-04-24 01:24 24.57107 -75.91363 40062 ft 387 kts 292°
2026-04-24 01:25 24.59729 -75.96512 40063 ft 387 kts 292°
2026-04-24 01:25 24.62351 -76.01657 40062 ft 388 kts 292°
2026-04-24 01:26 24.64974 -76.06812 40064 ft 386 kts 292°
2026-04-24 01:26 24.67590 -76.11964 40061 ft 387 kts 292°
2026-04-24 01:27 24.70216 -76.17137 40063 ft 388 kts 292°
2026-04-24 01:27 24.72831 -76.22298 40062 ft 388 kts 292°
2026-04-24 01:28 24.75458 -76.27486 40061 ft 389 kts 292°
2026-04-24 01:28 24.78091 -76.32693 40058 ft 389 kts 292°
2026-04-24 01:29 24.80715 -76.37887 40061 ft 389 kts 293°
2026-04-24 01:29 24.83345 -76.43097 40058 ft 390 kts 293°
2026-04-24 01:30 24.85971 -76.48305 40059 ft 391 kts 293°
2026-04-24 01:30 24.88597 -76.53519 40059 ft 390 kts 293°
2026-04-24 01:31 24.91218 -76.58726 40055 ft 390 kts 294°
2026-04-24 01:31 24.93856 -76.63976 40062 ft 390 kts 293°
2026-04-24 01:32 24.96471 -76.69191 40067 ft 390 kts 294°
2026-04-24 01:32 24.99086 -76.74407 40067 ft 390 kts 293°
2026-04-24 01:33 25.01712 -76.79656 40076 ft 393 kts 294°
2026-04-24 01:33 25.04349 -76.84927 40069 ft 392 kts 293°
2026-04-24 01:34 25.06971 -76.90172 40071 ft 392 kts 293°
2026-04-24 01:34 25.09614 -76.95467 40071 ft 393 kts 294°
2026-04-24 01:35 25.12245 -77.00741 40077 ft 390 kts 294°
2026-04-24 01:35 25.14854 -77.05979 40063 ft 391 kts 294°
2026-04-24 01:36 25.17460 -77.11222 40072 ft 391 kts 294°
2026-04-24 01:36 25.20071 -77.16476 40073 ft 392 kts 294°
2026-04-24 01:37 25.22694 -77.21761 40068 ft 393 kts 294°
2026-04-24 01:37 25.25316 -77.27053 40068 ft 392 kts 294°
2026-04-24 01:38 25.27932 -77.32343 40079 ft 393 kts 294°
2026-04-24 01:38 25.30186 -77.37798 40070 ft 389 kts 287°
2026-04-24 01:39 25.31977 -77.43427 40065 ft 388 kts 285°
2026-04-24 01:39 25.33689 -77.49056 40068 ft 389 kts 286°
2026-04-24 01:40 25.35414 -77.54691 40063 ft 389 kts 286°
2026-04-24 01:40 25.37167 -77.60370 40064 ft 389 kts 286°
2026-04-24 01:41 25.38914 -77.66016 40067 ft 390 kts 286°
2026-04-24 01:41 25.40679 -77.71716 40058 ft 390 kts 286°
2026-04-24 01:42 25.42432 -77.77383 40067 ft 390 kts 285°
2026-04-24 01:42 25.44176 -77.83025 40065 ft 390 kts 286°
2026-04-24 01:43 25.45932 -77.88719 40063 ft 389 kts 286°
2026-04-24 01:43 25.47669 -77.94360 40060 ft 388 kts 286°
2026-04-24 01:44 25.49407 -78.00013 40055 ft 389 kts 286°
2026-04-24 01:44 25.51140 -78.05656 40055 ft 389 kts 286°
2026-04-24 01:45 25.52876 -78.11320 40057 ft 388 kts 286°
2026-04-24 01:45 25.54606 -78.16972 40068 ft 389 kts 286°
2026-04-24 01:46 25.56335 -78.22626 40055 ft 389 kts 286°
2026-04-24 01:46 25.58070 -78.28314 40059 ft 388 kts 286°
2026-04-24 01:47 25.59805 -78.34014 40059 ft 389 kts 286°
2026-04-24 01:47 25.61538 -78.39712 40065 ft 389 kts 286°
2026-04-24 01:48 25.63252 -78.45355 40064 ft 389 kts 286°
2026-04-24 01:48 25.64974 -78.51032 40065 ft 388 kts 286°
2026-04-24 01:49 25.66684 -78.56681 40063 ft 388 kts 286°
2026-04-24 01:49 25.68397 -78.62349 40058 ft 388 kts 286°
2026-04-24 01:50 25.70104 -78.68005 40063 ft 388 kts 286°
2026-04-24 01:50 25.71811 -78.73671 40063 ft 387 kts 286°
2026-04-24 01:51 25.73508 -78.79305 40073 ft 385 kts 286°
2026-04-24 01:51 25.75195 -78.84927 40062 ft 386 kts 285°
2026-04-24 01:52 25.76884 -78.90562 40056 ft 386 kts 285°
2026-04-24 01:52 25.78568 -78.96185 40070 ft 386 kts 286°
2026-04-24 01:53 25.80256 -79.01831 40065 ft 387 kts 286°
2026-04-24 01:53 25.81939 -79.07469 40058 ft 384 kts 286°
2026-04-24 01:54 25.83615 -79.13093 40071 ft 385 kts 286°
2026-04-24 01:54 25.85293 -79.18733 40064 ft 386 kts 286°
2026-04-24 01:55 25.86974 -79.24390 40072 ft 384 kts 286°
2026-04-24 01:55 25.88643 -79.30016 40071 ft 384 kts 286°
2026-04-24 01:56 25.90305 -79.35623 40063 ft 385 kts 286°
2026-04-24 01:56 25.91969 -79.41250 40059 ft 384 kts 286°
2026-04-24 01:57 25.93630 -79.46877 40076 ft 384 kts 286°
2026-04-24 01:57 25.95287 -79.52499 40068 ft 383 kts 286°
2026-04-24 01:58 25.96933 -79.58092 40071 ft 382 kts 286°
2026-04-24 01:58 25.98578 -79.63693 40067 ft 381 kts 286°
2026-04-24 01:59 26.00213 -79.69270 40061 ft 382 kts 286°
2026-04-24 01:59 26.01039 -79.72087 39874 ft 381 kts 286°
2026-04-24 01:59 26.01851 -79.74859 39502 ft 375 kts 286°
2026-04-24 01:59 26.02616 -79.77471 39041 ft 371 kts 286°
2026-04-24 02:00 26.03403 -79.80157 38511 ft 369 kts 285°
2026-04-24 02:00 26.04200 -79.82886 37964 ft 371 kts 285°
2026-04-24 02:00 26.04996 -79.85619 37401 ft 372 kts 285°
2026-04-24 02:00 26.05791 -79.88348 36847 ft 374 kts 285°
2026-04-24 02:01 26.06592 -79.91097 36286 ft 374 kts 285°
2026-04-24 02:01 26.07386 -79.93826 35702 ft 377 kts 285°
2026-04-24 02:01 26.08191 -79.96592 35059 ft 379 kts 285°
2026-04-24 02:01 26.09006 -79.99397 34393 ft 381 kts 285°
2026-04-24 02:02 26.09821 -80.02203 33760 ft 382 kts 285°
2026-04-24 02:02 26.10638 -80.05017 33094 ft 384 kts 285°
2026-04-24 02:02 26.11453 -80.07828 32388 ft 387 kts 285°
2026-04-24 02:02 26.12295 -80.10706 31657 ft 389 kts 286°
2026-04-24 02:03 26.14534 -80.16219 30565 ft 407 kts 300°
2026-04-24 02:03 26.16288 -80.18780 30110 ft 426 kts 309°
2026-04-24 02:03 26.18456 -80.21087 30057 ft 429 kts 317°
2026-04-24 02:04 26.23460 -80.24938 30061 ft 441 kts 327°
2026-04-24 02:04 26.28976 -80.27926 30063 ft 441 kts 332°
2026-04-24 02:05 26.34607 -80.30704 30065 ft 442 kts 332°
2026-04-24 02:05 26.40238 -80.33511 30064 ft 442 kts 331°
2026-04-24 02:06 26.45834 -80.36368 30063 ft 441 kts 331°
2026-04-24 02:06 26.51447 -80.39271 30063 ft 440 kts 330°
2026-04-24 02:07 26.56998 -80.42170 30062 ft 443 kts 330°
2026-04-24 02:07 26.62574 -80.45087 30065 ft 441 kts 332°
2026-04-24 02:08 26.68301 -80.47680 30063 ft 444 kts 335°
2026-04-24 02:08 26.74161 -80.50018 30017 ft 443 kts 336°
2026-04-24 02:09 26.77033 -80.51153 29498 ft 441 kts 336°
2026-04-24 02:09 26.79937 -80.52309 28969 ft 436 kts 336°
2026-04-24 02:09 26.82803 -80.53462 28425 ft 432 kts 336°
2026-04-24 02:09 26.85614 -80.54602 27898 ft 428 kts 336°
2026-04-24 02:10 26.88372 -80.55729 27372 ft 424 kts 336°
2026-04-24 02:10 26.91153 -80.56870 26841 ft 419 kts 336°
2026-04-24 02:10 26.93866 -80.57989 26316 ft 415 kts 335°
2026-04-24 02:10 26.96576 -80.59109 25792 ft 411 kts 336°
2026-04-24 02:11 26.99234 -80.60214 25270 ft 407 kts 336°
2026-04-24 02:11 27.01879 -80.61314 24752 ft 403 kts 336°
2026-04-24 02:11 27.04528 -80.62416 24230 ft 399 kts 336°
2026-04-24 02:11 27.07110 -80.63490 23722 ft 395 kts 336°
2026-04-24 02:12 27.09687 -80.64561 23212 ft 391 kts 336°
2026-04-24 02:12 27.12230 -80.65620 23070 ft 384 kts 336°
2026-04-24 02:12 27.14762 -80.66681 23076 ft 392 kts 336°
2026-04-24 02:12 27.15857 -80.67141 23071 ft 393 kts 335°
2026-04-24 02:13 27.18438 -80.68227 23074 ft 391 kts 336°
2026-04-24 02:13 27.20875 -80.69250 23073 ft 393 kts 335°
2026-04-24 02:13 27.23456 -80.70337 23067 ft 394 kts 336°
2026-04-24 02:13 27.26027 -80.71418 22830 ft 393 kts 336°
2026-04-24 02:14 27.28585 -80.72491 22554 ft 386 kts 336°
2026-04-24 02:14 27.31075 -80.73534 22136 ft 381 kts 336°
2026-04-24 02:14 27.33563 -80.74577 21654 ft 379 kts 336°
2026-04-24 02:14 27.36057 -80.75628 21178 ft 382 kts 336°
2026-04-24 02:15 27.38531 -80.76674 21072 ft 377 kts 336°
2026-04-24 02:15 27.40980 -80.77724 21070 ft 377 kts 335°
2026-04-24 02:15 27.43466 -80.78802 21072 ft 380 kts 336°
2026-04-24 02:15 27.45903 -80.79863 21073 ft 378 kts 336°
2026-04-24 02:16 27.48383 -80.80941 21069 ft 378 kts 336°
2026-04-24 02:16 27.50843 -80.82011 21072 ft 378 kts 336°
2026-04-24 02:16 27.53298 -80.83077 21072 ft 378 kts 335°
2026-04-24 02:16 27.55768 -80.84152 21071 ft 378 kts 336°
2026-04-24 02:17 27.58212 -80.85259 21075 ft 378 kts 334°
2026-04-24 02:17 27.60622 -80.86472 21075 ft 378 kts 332°
2026-04-24 02:17 27.62990 -80.87734 21067 ft 378 kts 332°
2026-04-24 02:17 27.65372 -80.89019 21069 ft 376 kts 332°
2026-04-24 02:18 27.67730 -80.90289 21072 ft 376 kts 332°
2026-04-24 02:18 27.69757 -80.91375 21072 ft 378 kts 332°
2026-04-24 02:18 27.71976 -80.92554 21063 ft 375 kts 332°
2026-04-24 02:19 27.74354 -80.93811 20717 ft 372 kts 332°
2026-04-24 02:19 27.76693 -80.95046 20251 ft 369 kts 333°
2026-04-24 02:19 27.79005 -80.96264 19762 ft 367 kts 332°
2026-04-24 02:19 27.81307 -80.97475 19271 ft 365 kts 333°
2026-04-24 02:20 27.83614 -80.98688 18769 ft 362 kts 333°
2026-04-24 02:20 27.85901 -80.99889 18269 ft 360 kts 333°
2026-04-24 02:20 27.88178 -81.01087 17777 ft 358 kts 333°
2026-04-24 02:20 27.90438 -81.02278 17289 ft 356 kts 333°
2026-04-24 02:21 27.92653 -81.03444 16802 ft 354 kts 333°
2026-04-24 02:21 27.94902 -81.04585 16247 ft 354 kts 336°
2026-04-24 02:21 27.97199 -81.05607 15726 ft 353 kts 338°
2026-04-24 02:21 27.99508 -81.06553 15225 ft 351 kts 339°
2026-04-24 02:22 28.01817 -81.07482 14736 ft 349 kts 340°
2026-04-24 02:22 28.04101 -81.08413 14250 ft 347 kts 339°
2026-04-24 02:22 28.06366 -81.09351 13771 ft 344 kts 339°
2026-04-24 02:22 28.08585 -81.10281 13297 ft 342 kts 339°
2026-04-24 02:23 28.10822 -81.11246 12818 ft 340 kts 338°
2026-04-24 02:23 28.13042 -81.12222 12330 ft 338 kts 338°
2026-04-24 02:23 28.15217 -81.13187 11872 ft 335 kts 338°
2026-04-24 02:23 28.17410 -81.14162 11394 ft 333 kts 338°
2026-04-24 02:24 28.19571 -81.15121 10919 ft 331 kts 338°
2026-04-24 02:24 28.21683 -81.16054 10472 ft 328 kts 338°
2026-04-24 02:24 28.23819 -81.16997 10217 ft 318 kts 338°
2026-04-24 02:24 28.25844 -81.17889 10121 ft 305 kts 339°
2026-04-24 02:25 28.27845 -81.18568 9958 ft 295 kts 349°
2026-04-24 02:25 28.29855 -81.18780 9955 ft 288 kts 358°
2026-04-24 02:25 28.31877 -81.18773 9855 ft 289 kts
2026-04-24 02:25 28.33892 -81.18733 9555 ft 285 kts
2026-04-24 02:26 28.35861 -81.18717 9265 ft 281 kts 359°
2026-04-24 02:26 28.37790 -81.18729 8973 ft 277 kts 359°
2026-04-24 02:26 28.39738 -81.18755 8630 ft 275 kts 359°
2026-04-24 02:26 28.41643 -81.18777 8291 ft 274 kts 359°
2026-04-24 02:27 28.43560 -81.18792 7953 ft 272 kts 359°
2026-04-24 02:27 28.45450 -81.18806 7612 ft 270 kts 359°
2026-04-24 02:27 28.47315 -81.18819 7274 ft 269 kts 360°
2026-04-24 02:27 28.49204 -81.18835 6930 ft 267 kts 360°
2026-04-24 02:28 28.51063 -81.18850 6590 ft 266 kts 360°
2026-04-24 02:28 28.52923 -81.18865 6249 ft 265 kts 360°
2026-04-24 02:28 28.54779 -81.18881 5906 ft 263 kts 360°
2026-04-24 02:28 28.56583 -81.18909 5672 ft 258 kts 359°
2026-04-24 02:29 28.58344 -81.18953 5622 ft 245 kts 359°
2026-04-24 02:29 28.60048 -81.18996 5286 ft 246 kts 360°
2026-04-24 02:29 28.61772 -81.19038 4947 ft 247 kts
2026-04-24 02:29 28.63495 -81.19074 4618 ft 248 kts
2026-04-24 02:30 28.65218 -81.19106 4325 ft 246 kts
2026-04-24 02:30 28.66933 -81.19141 4032 ft 246 kts
2026-04-24 02:30 28.68641 -81.19405 3746 ft 245 kts 340°
2026-04-24 02:30 28.70027 -81.20489 3504 ft 244 kts 309°
2026-04-24 02:31 28.70737 -81.22194 3263 ft 240 kts 277°
2026-04-24 02:31 28.70581 -81.24034 3025 ft 232 kts 244°
2026-04-24 02:31 28.69632 -81.25462 2974 ft 223 kts 217°
2026-04-24 02:31 28.68396 -81.26547 2957 ft 224 kts 213°
2026-04-24 02:32 28.67141 -81.27584 2954 ft 214 kts 213°
2026-04-24 02:32 28.65926 -81.28516 2965 ft 209 kts 201°
2026-04-24 02:32 28.64537 -81.28796 2963 ft 203 kts 170°
2026-04-24 02:32 28.63144 -81.28500 2961 ft 203 kts 170°
2026-04-24 02:33 28.61716 -81.28387 2962 ft 205 kts 177°
2026-04-24 02:33 28.60288 -81.28406 2962 ft 205 kts 178°
2026-04-24 02:33 28.58878 -81.28411 2886 ft 197 kts 176°
2026-04-24 02:33 28.57517 -81.28391 2654 ft 196 kts 176°
2026-04-24 02:34 28.56142 -81.28372 2406 ft 194 kts 176°
2026-04-24 02:34 28.54796 -81.28362 2123 ft 193 kts 176°
2026-04-24 02:34 28.53469 -81.28349 1873 ft 190 kts 175°
2026-04-24 02:34 28.52143 -81.28335 1620 ft 187 kts 175°
2026-04-24 02:35 28.50853 -81.28322 1370 ft 185 kts 176°
2026-04-24 02:35 28.49575 -81.28310 1126 ft 183 kts 176°
2026-04-24 02:35 28.48304 -81.28297 884 ft 176 kts 176°
2026-04-24 02:35 28.47139 -81.28287 693 ft 158 kts 176°
2026-04-24 02:36 28.46081 -81.28273 456 ft 151 kts 176°
2026-04-24 02:36 28.45026 -81.28265 272 ft 151 kts 177°
2026-04-24 02:36 28.43979 -81.28252 109 ft 148 kts 177°
2026-04-24 02:36 28.43168 -81.28243 104 ft 84 kts 180°
2026-04-24 02:37 28.42769 -81.28239 104 ft 41 kts 180°
2026-04-24 02:37 28.42564 -81.28291 104 ft 26 kts 221°
2026-04-24 02:37 28.42484 -81.28478 104 ft 27 kts 251°
2026-04-24 02:37 28.42420 -81.28677 104 ft 26 kts 251°
2026-04-24 02:38 28.42365 -81.28853 104 ft 22 kts 250°
2026-04-24 02:38 28.42313 -81.29022 104 ft 22 kts 252°
2026-04-24 02:38 28.42287 -81.29194 104 ft 23 kts 266°
2026-04-24 02:38 28.42284 -81.29394 104 ft 26 kts 270°
2026-04-24 02:39 28.42282 -81.29597 104 ft 25 kts 269°
2026-04-24 02:39 28.42284 -81.29748 104 ft 14 kts 284°
2026-04-24 02:39 28.42362 -81.29797 104 ft 13 kts
2026-04-24 02:39 28.42462 -81.29796 104 ft 14 kts
2026-04-24 02:40 28.42558 -81.29802 104 ft 13 kts 339°
2026-04-24 02:40 28.42623 -81.29873 104 ft 12 kts 330°
2026-04-24 02:40 28.42721 -81.29887 104 ft 14 kts
2026-04-24 02:40 28.42803 -81.29888 104 ft 6 kts 341°
2026-04-24 02:41 28.42824 -81.29929 104 ft 6 kts 283°
2026-04-24 02:41 28.42833 -81.29971 104 ft 3 kts 286°
2026-04-24 02:41 28.42838 -81.29988 104 ft 0 kts 287°